| time (UTC) | temp C | wind direction | speed KPH | gust KPH | rain 1hr cm | rain 24hr cm | rain mn cm | humidity % | barometer mb |
| 20260503215016 | 16 | 0.0 | 0.0 | 0.00 | 0.00 | 0.00 | 65 | 1019.5 | |
| 20260503214016 | 16 | 225 | 1.6 | 6.4 | 0.00 | 0.00 | 0.00 | 65 | 1019.3 |
| 20260503213016 | 16 | 0.0 | 3.2 | 0.00 | 0.00 | 0.00 | 65 | 1019.3 | |
| 20260503212017 | 16 | 248 | 1.6 | 6.4 | 0.00 | 0.00 | 0.00 | 64 | 1019.1 |
| 20260503211017 | 17 | 248 | 6.4 | 16.1 | 0.00 | 0.00 | 0.00 | 64 | 1019.1 |
| 20260503210016 | 17 | 248 | 6.4 | 20.9 | 0.00 | 0.00 | 0.00 | 64 | 1019.0 |
| 20260503205017 | 17 | 270 | 6.4 | 12.9 | 0.00 | 0.00 | 0.00 | 63 | 1018.8 |
| 20260503204016 | 17 | 293 | 6.4 | 17.7 | 0.00 | 0.00 | 0.00 | 63 | 1018.7 |
| 20260503203016 | 17 | 248 | 6.4 | 14.5 | 0.00 | 0.00 | 0.00 | 62 | 1018.6 |
| 20260503202016 | 17 | 248 | 4.8 | 11.3 | 0.00 | 0.00 | 0.00 | 63 | 1018.5 |
| 20260503201036 | 17 | 248 | 4.8 | 11.3 | 0.00 | 0.00 | 0.00 | 63 | 1018.5 |
| 20260503200016 | 18 | 248 | 1.6 | 8.0 | 0.00 | 0.00 | 0.00 | 64 | 1018.5 |
| 20260503195016 | 18 | 248 | 1.6 | 4.8 | 0.00 | 0.00 | 0.00 | 63 | 1018.5 |
| 20260503194016 | 18 | 270 | 3.2 | 9.7 | 0.00 | 0.00 | 0.00 | 62 | 1018.4 |
| 20260503193016 | 18 | 248 | 4.8 | 11.3 | 0.00 | 0.00 | 0.00 | 62 | 1018.3 |
| 20260503192016 | 18 | 270 | 8.0 | 17.7 | 0.00 | 0.00 | 0.00 | 61 | 1018.1 |
| 20260503191016 | 19 | 293 | 8.0 | 16.1 | 0.00 | 0.00 | 0.00 | 60 | 1017.9 |
| 20260503190016 | 19 | 248 | 6.4 | 16.1 | 0.00 | 0.00 | 0.00 | 60 | 1017.9 |
| 20260503185016 | 20 | 248 | 8.0 | 11.3 | 0.00 | 0.00 | 0.00 | 59 | 1017.7 |
| 20260503184036 | 20 | 248 | 8.0 | 16.1 | 0.00 | 0.00 | 0.00 | 58 | 1017.6 |
| 20260503183016 | 20 | 248 | 6.4 | 17.7 | 0.00 | 0.00 | 0.00 | 57 | 1017.5 |
| 20260503182116 | 20 | 248 | 3.2 | 9.7 | 0.00 | 0.00 | 0.00 | 55 | 1017.4 |
| 20260503181016 | 21 | 248 | 4.8 | 8.0 | 0.00 | 0.00 | 0.00 | 54 | 1017.4 |
| 20260503180016 | 21 | 248 | 3.2 | 9.7 | 0.00 | 0.00 | 0.00 | 53 | 1017.4 |
| 20260503175016 | 21 | 248 | 3.2 | 11.3 | 0.00 | 0.00 | 0.00 | 51 | 1017.4 |
| 20260503174016 | 22 | 225 | 1.6 | 6.4 | 0.00 | 0.00 | 0.00 | 50 | 1017.4 |
| 20260503173016 | 22 | 225 | 3.2 | 11.3 | 0.00 | 0.00 | 0.00 | 47 | 1017.3 |
| 20260503172016 | 23 | 0.0 | 0.0 | 0.00 | 0.00 | 0.00 | 45 | 1017.2 | |
| 20260503171016 | 23 | 225 | 1.6 | 8.0 | 0.00 | 0.00 | 0.00 | 43 | 1017.2 |
| 20260503131037 | 23 | 270 | 3.2 | 9.7 | 0.00 | 0.00 | 0.00 | 32 | 1019.2 |
| 20260503081017 | 17 | 0.0 | 3.2 | 0.00 | 0.00 | 0.00 | 64 | 1021.5 | |
| 20260503072017 | 15 | 135 | 3.2 | 8.0 | 0.00 | 0.00 | 0.00 | 68 | 1021.6 |
| 20260503071037 | 15 | 180 | 1.6 | 8.0 | 0.00 | 0.00 | 0.00 | 67 | 1021.7 |
| 20260503055017 | 12 | 0.0 | 1.6 | 0.00 | 0.00 | 0.00 | 73 | 1021.6 | |
| 20260503054037 | 11 | 0.0 | 1.6 | 0.00 | 0.00 | 0.00 | 74 | 1021.5 | |
| 20260503053017 | 11 | 0.0 | 1.6 | 0.00 | 0.00 | 0.00 | 73 | 1021.5 | |
| 20260503052017 | 11 | 0.0 | 0.0 | 0.00 | 0.00 | 0.00 | 75 | 1021.5 | |
| 20260503051017 | 10 | 0.0 | 1.6 | 0.00 | 0.00 | 0.00 | 77 | 1021.4 | |
| 20260503050037 | 10 | 0.0 | 0.0 | 0.00 | 0.00 | 0.00 | 79 | 1021.3 | |
| 20260503045017 | 8 | 0.0 | 0.0 | 0.00 | 0.00 | 0.00 | 81 | 1021.3 | |
| 20260503044016 | 8 | 0.0 | 0.0 | 0.00 | 0.00 | 0.00 | 80 | 1021.2 | |
| 20260503043037 | 8 | 0.0 | 0.0 | 0.00 | 0.00 | 0.00 | 80 | 1021.3 | |
| 20260503042017 | 8 | 0.0 | 0.0 | 0.00 | 0.00 | 0.00 | 80 | 1021.1 | |
| 20260503041016 | 8 | 0.0 | 0.0 | 0.00 | 0.00 | 0.00 | 81 | 1021.1 | |
| 20260503040016 | 8 | 0.0 | 0.0 | 0.00 | 0.00 | 0.00 | 80 | 1021.1 | |
| 20260503035017 | 8 | 0.0 | 0.0 | 0.00 | 0.00 | 0.00 | 80 | 1021.0 | |
| 20260503034037 | 8 | 0.0 | 0.0 | 0.00 | 0.00 | 0.00 | 79 | 1021.1 | |
| 20260503033117 | 9 | 0.0 | 0.0 | 0.00 | 0.00 | 0.00 | 78 | 1021.1 | |
| 20260503032017 | 10 | 0.0 | 0.0 | 0.00 | 0.00 | 0.00 | 77 | 1021.1 | |
| 20260503031036 | 10 | 0.0 | 0.0 | 0.00 | 0.00 | 0.00 | 77 | 1021.0 | |
| 20260503030016 | 10 | 0.0 | 0.0 | 0.00 | 0.00 | 0.00 | 77 | 1021.0 | |
| 20260503025036 | 10 | 0.0 | 0.0 | 0.00 | 0.00 | 0.00 | 76 | 1021.0 | |
| 20260503024016 | 10 | 0.0 | 0.0 | 0.00 | 0.00 | 0.00 | 75 | 1021.1 | |
| 20260503023036 | 10 | 0.0 | 0.0 | 0.00 | 0.00 | 0.00 | 75 | 1021.1 | |
| 20260503022016 | 11 | 248 | 1.6 | 3.2 | 0.00 | 0.00 | 0.00 | 74 | 1021.2 |
| 20260503021056 | 11 | 0.0 | 0.0 | 0.00 | 0.00 | 0.00 | 72 | 1021.2 | |
| 20260503020016 | 11 | 0.0 | 0.0 | 0.00 | 0.00 | 0.00 | 72 | 1021.2 | |
| 20260503015016 | 11 | 0.0 | 0.0 | 0.00 | 0.00 | 0.00 | 71 | 1021.1 | |
| 20260503014036 | 11 | 0.0 | 0.0 | 0.00 | 0.00 | 0.00 | 70 | 1021.2 | |
| 20260503013016 | 11 | 0.0 | 0.0 | 0.00 | 0.00 | 0.00 | 71 | 1021.2 | |
| 20260503012036 | 11 | 0.0 | 0.0 | 0.00 | 0.00 | 0.00 | 71 | 1021.4 | |
| 20260503011016 | 11 | 0.0 | 0.0 | 0.00 | 0.00 | 0.00 | 70 | 1021.4 | |
| 20260503010016 | 12 | 0.0 | 0.0 | 0.00 | 0.00 | 0.00 | 69 | 1021.4 | |
| 20260503005016 | 12 | 0.0 | 0.0 | 0.00 | 0.00 | 0.00 | 67 | 1021.5 | |
| 20260503004016 | 12 | 0.0 | 0.0 | 0.00 | 0.00 | 0.00 | 67 | 1021.5 | |
| 20260503003016 | 12 | 0.0 | 0.0 | 0.00 | 0.00 | 0.00 | 66 | 1021.6 | |
| 20260503002016 | 12 | 0.0 | 0.0 | 0.00 | 0.00 | 0.00 | 66 | 1021.5 | |
| 20260503001016 | 12 | 0.0 | 0.0 | 0.00 | 0.00 | 0.00 | 66 | 1021.6 | |
| 20260503000016 | 12 | 0.0 | 3.2 | 0.00 | 0.00 | 0.00 | 66 | 1021.5 | |
| 20260502235016 | 12 | 0.0 | 1.6 | 0.00 | 0.00 | 0.00 | 67 | 1021.6 | |
| 20260502234016 | 12 | 248 | 3.2 | 4.8 | 0.00 | 0.00 | 0.00 | 69 | 1021.7 |
| 20260502233116 | 12 | 0.0 | 3.2 | 0.00 | 0.00 | 0.00 | 69 | 1021.8 | |
| 20260502232018 | 12 | 248 | 1.6 | 6.4 | 0.00 | 0.00 | 0.00 | 69 | 1021.8 |
| 20260502231038 | 12 | 0.0 | 1.6 | 0.00 | 0.00 | 0.00 | 68 | 1021.7 | |
| 20260502230037 | 12 | 0.0 | 1.6 | 0.00 | 0.00 | 0.00 | 67 | 1021.7 | |
| 20260502225017 | 12 | 0.0 | 0.0 | 0.00 | 0.00 | 0.00 | 67 | 1021.7 | |
| 20260502224017 | 12 | 0.0 | 0.0 | 0.00 | 0.00 | 0.00 | 66 | 1021.7 | |
| 20260502223018 | 13 | 0.0 | 0.0 | 0.00 | 0.00 | 0.00 | 65 | 1021.8 | |
| 20260502222017 | 12 | 0.0 | 0.0 | 0.00 | 0.00 | 0.00 | 65 | 1021.8 | |
| 20260502221017 | 12 | 248 | 1.6 | 3.2 | 0.00 | 0.00 | 0.00 | 65 | 1021.8 |
| 20260502220017 | 13 | 248 | 1.6 | 3.2 | 0.00 | 0.00 | 0.00 | 62 | 1021.7 |